Weather History for Edinburgh Airport, United Kingdom

Change the Weather History Date:

Sunday, November 4, 2012

  Actual Average Record
Temperature  
Mean Temperature 35 °F -  
Max Temperature 44 °F 47 °F 59 °F (2003)
Min Temperature 26 °F 36 °F 26 °F (2012)
Degree Days  
Heating Degree Days 30    
Moisture  
Dew Point 32 °F    
Average Humidity 94    
Maximum Humidity 100    
Minimum Humidity 76    
Precipitation  
Precipitation 0.00 in 0.08 in - ()
Sea Level Pressure  
Sea Level Pressure 29.40 in    
Wind  
Wind Speed 2 mph ()    
Max Wind Speed 9 mph    
Max Gust Speed -    
Visibility 5.7 miles    
Events      
Averages and records for this station are not official NWS values.
T = Trace of Precipitation, MM = Missing Value Source: Averaged Metar Reports

Daily Weather History Graph

Daily Weather History Graph

Search for Another Location

Airport:

Trip Planner

Search our weather history database for the weather conditions in past years. The results will help you decide how hot, cold, wet, or windy it might be!

Date:

Astronomy

Nov. 04, 2012 Rise Set
Actual Time 7:27 AM GMT 4:25 PM GMT
Civil Twilight 6:47 AM GMT 5:05 PM GMT
Nautical Twilight 6:02 AM GMT 5:50 PM GMT
Astronomical Twilight 5:19 AM GMT 6:33 PM GMT
Moon 8:37 PM GMT (11/4) 12:16 PM GMT (11/4)
Length of Visible Light 10h 18m
Length of Day
8h 58m
Waning Gibbous, 74% of the Moon is Illuminated
Nov 4
Waning Gibbous
Nov 7
Last Quarter
Nov 13
New
Nov 20
First Quarter
Nov 28
Full

Hourly Weather History & Observations

Time (GMT) Temp. Windchill Dew Point Humidity Pressure Visibility Wind Dir Wind Speed Gust Speed Precip Events Conditions
12:20 AM 30.2 °F - 28.4 °F 93% 29.27 in - Calm Calm - N/A   Clear
12:50 AM 32.0 °F - 30.2 °F 93% 29.27 in - Variable 2.3 mph - N/A   Clear
1:20 AM 30.2 °F 26.7 °F 28.4 °F 93% 29.27 in - ENE 3.5 mph - N/A   Clear
1:50 AM 30.2 °F 26.7 °F 28.4 °F 93% 29.27 in - ENE 3.5 mph - N/A   Clear
2:20 AM 28.4 °F 24.6 °F 28.4 °F 100% 29.27 in - Variable 3.5 mph - N/A   Clear
2:50 AM 28.4 °F - 28.4 °F 100% 29.27 in 6.2 mi ENE 2.3 mph - N/A   Unknown
3:20 AM 28.4 °F - 28.4 °F 100% 29.27 in 6.2 mi Variable 2.3 mph - N/A   Partly Cloudy
3:50 AM 30.2 °F 24.3 °F 28.4 °F 93% 29.30 in 6.2 mi ENE 5.8 mph - N/A   Partly Cloudy
4:20 AM 30.2 °F - 30.2 °F 100% 29.30 in - Variable 2.3 mph - N/A   Clear
4:50 AM 28.4 °F - 28.4 °F 100% 29.30 in 6.2 mi Calm Calm - N/A   Partly Cloudy
5:20 AM 28.4 °F - 26.6 °F 93% 29.30 in 6.2 mi Variable 2.3 mph - N/A   Scattered Clouds
5:50 AM 30.2 °F - 28.4 °F 93% 29.30 in 6.2 mi Variable 2.3 mph - N/A   Partly Cloudy
6:20 AM 28.4 °F - 26.6 °F 93% 29.30 in 6.2 mi Calm Calm - N/A   Partly Cloudy
6:50 AM 28.4 °F - 28.4 °F 100% 29.30 in 6.2 mi Variable 2.3 mph - N/A   Partly Cloudy
7:20 AM 26.6 °F - 26.6 °F 100% 29.33 in 6.2 mi Calm Calm - N/A   Partly Cloudy
7:50 AM 26.6 °F - 26.6 °F 100% 29.33 in 6.2 mi Variable 2.3 mph - N/A   Partly Cloudy
8:20 AM 28.4 °F - 28.4 °F 100% 29.33 in 6.2 mi Calm Calm - N/A   Partly Cloudy
8:50 AM 30.2 °F 26.7 °F 30.2 °F 100% 29.36 in 6.2 mi SW 3.5 mph - N/A   Partly Cloudy
9:20 AM 32.0 °F - 30.2 °F 93% 29.36 in 6.2 mi Calm Calm - N/A   Partly Cloudy
9:50 AM 35.6 °F - 35.6 °F 100% 29.36 in 6.2 mi Calm Calm - N/A   Partly Cloudy
10:20 AM 41.0 °F 38.0 °F 37.4 °F 87% 29.36 in 6.2 mi East 4.6 mph - N/A   Partly Cloudy
10:50 AM 41.0 °F 37.1 °F 35.6 °F 81% 29.36 in 6.2 mi NE 5.8 mph - N/A   Partly Cloudy
11:20 AM 41.0 °F 39.0 °F 37.4 °F 87% 29.39 in 6.2 mi NE 3.5 mph - N/A   Partly Cloudy
11:50 AM 42.8 °F 40.1 °F 37.4 °F 81% 29.39 in 6.2 mi NNE 4.6 mph - N/A   Partly Cloudy
12:20 PM 44.6 °F 40.7 °F 37.4 °F 76% 29.39 in 6.2 mi ENE 6.9 mph - N/A   Partly Cloudy
12:50 PM 44.6 °F 39.7 °F 37.4 °F 76% 29.39 in 6.2 mi ENE 9.2 mph - N/A   Partly Cloudy
1:20 PM 44.6 °F 39.7 °F 37.4 °F 76% 29.39 in 6.2 mi ENE 9.2 mph - N/A   Partly Cloudy
1:50 PM 42.8 °F 39.3 °F 37.4 °F 81% 29.42 in 6.2 mi East 5.8 mph - N/A   Partly Cloudy
2:20 PM 41.0 °F 39.0 °F 37.4 °F 87% 29.42 in 6.2 mi ENE 3.5 mph - N/A   Partly Cloudy
2:50 PM 41.0 °F 39.0 °F 37.4 °F 87% 29.42 in - Variable 3.5 mph - N/A   Clear
3:20 PM 39.2 °F - 35.6 °F 87% 29.42 in - Calm Calm - N/A   Clear
3:50 PM 37.4 °F - 35.6 °F 93% 29.42 in 6.2 mi Calm Calm - N/A   Partly Cloudy
4:20 PM 35.6 °F - 33.8 °F 93% 29.44 in 6.2 mi Calm Calm - N/A   Partly Cloudy
4:50 PM 33.8 °F - 32.0 °F 93% 29.44 in 6.2 mi Calm Calm - N/A   Partly Cloudy
5:20 PM 32.0 °F - 32.0 °F 100% 29.47 in 6.2 mi Calm Calm - N/A   Partly Cloudy
5:50 PM 32.0 °F - 32.0 °F 100% 29.47 in 6.2 mi Calm Calm - N/A   Scattered Clouds
6:20 PM 32.0 °F - 32.0 °F 100% 29.50 in 6.2 mi Calm Calm - N/A   Mostly Cloudy
6:50 PM 32.0 °F - 32.0 °F 100% 29.50 in 6.2 mi Variable 2.3 mph - N/A   Mostly Cloudy
7:20 PM 32.0 °F - 32.0 °F 100% 29.50 in 6.2 mi Calm Calm - N/A   Mostly Cloudy
7:50 PM 32.0 °F - 32.0 °F 100% 29.53 in 5.0 mi Calm Calm - N/A   Scattered Clouds
8:20 PM 32.0 °F - 30.2 °F 93% 29.53 in 5.0 mi Calm Calm - N/A   Mostly Cloudy
8:50 PM 33.8 °F 30.8 °F 32.0 °F 93% 29.56 in 5.0 mi SW 3.5 mph - N/A   Scattered Clouds
9:20 PM 32.0 °F - 32.0 °F 100% 29.56 in 4.3 mi Variable 2.3 mph - N/A   Scattered Clouds
9:50 PM 30.2 °F - 30.2 °F 100% 29.56 in 3.7 mi Calm Calm - N/A   Mostly Cloudy
10:20 PM 32.0 °F - 32.0 °F 100% 29.59 in 3.7 mi Calm Calm - N/A   Mostly Cloudy
10:50 PM 32.0 °F - 32.0 °F 100% 29.59 in 3.7 mi Calm Calm - N/A   Mostly Cloudy
11:20 PM 32.0 °F - 32.0 °F 100% 29.59 in 3.1 mi Calm Calm - N/A   Scattered Clouds
11:50 PM 30.2 °F - 30.2 °F 100% 29.62 in 3.1 mi SW 2.3 mph - N/A   Scattered Clouds